Weather History for McComb, MS

Change the Weather History Date:

Friday, November 18, 2011

  Actual Average Record
Temperature  
Mean Temperature 49 °F -  
Max Temperature 63 °F 69 °F 83 °F (1986)
Min Temperature 35 °F 46 °F 20 °F (1951)
Degree Days  
Heating Degree Days 16    
Moisture  
Dew Point 34 °F    
Average Humidity 59    
Maximum Humidity 90    
Minimum Humidity 27    
Precipitation  
Precipitation 0.00 in - - ()
Sea Level Pressure  
Sea Level Pressure 30.25 in    
Wind  
Wind Speed 4 mph (ESE)    
Max Wind Speed 10 mph    
Max Gust Speed -    
Visibility 10 miles    
Events      
Averages and records for this station are not official NWS values.
T = Trace of Precipitation, MM = Missing Value Source: NWS Daily Summary

Daily Weather History Graph

Daily Weather History Graph

Search for Another Location

Airport:

Trip Planner

Search our weather history database for the weather conditions in past years. The results will help you decide how hot, cold, wet, or windy it might be!

Date:

Astronomy

Nov. 18, 2011 Rise Set
Actual Time 6:31 AM CST 5:02 PM CST
Civil Twilight 6:05 AM CST 5:28 PM CST
Nautical Twilight 5:36 AM CST 5:57 PM CST
Astronomical Twilight 5:07 AM CST 6:26 PM CST
Moon No Moon Rise 12:22 PM CST (11/18)
Length of Visible Light 11h 22m
Length of Day
10h 30m
Waning Gibbous, 49% of the Moon is Illuminated
Nov 18
Waning Gibbous
Nov 25
New
Dec 2
First Quarter
Dec 10
Full
Dec 17
Last Quarter

Hourly Weather History & Observations

Time (CST) Temp. Windchill Dew Point Humidity Pressure Visibility Wind Dir Wind Speed Gust Speed Precip Events Conditions
12:53 AM 39.9 °F 37.8 °F 28.9 °F 65% 30.32 in 10.0 mi NNE 3.5 mph - N/A   Clear
1:53 AM 39.0 °F 35.7 °F 28.9 °F 67% 30.31 in 10.0 mi NNE 4.6 mph - N/A   Clear
2:53 AM 39.0 °F 36.8 °F 27.0 °F 62% 30.32 in 10.0 mi NE 3.5 mph - N/A   Clear
3:53 AM 37.9 °F - 27.0 °F 65% 30.32 in 10.0 mi Calm Calm - N/A   Clear
4:53 AM 37.0 °F 34.5 °F 27.0 °F 67% 30.32 in 10.0 mi NE 3.5 mph - N/A   Clear
5:53 AM 35.1 °F 32.2 °F 27.0 °F 72% 30.33 in 10.0 mi ENE 3.5 mph - N/A   Clear
6:53 AM 36.0 °F - 27.0 °F 70% 30.34 in 10.0 mi Calm Calm - N/A   Clear
8:53 AM 46.0 °F 43.1 °F 25.0 °F 44% 30.33 in 10.0 mi Variable 5.8 mph - N/A   Clear
9:53 AM 51.1 °F - 25.0 °F 36% 30.33 in 10.0 mi Variable 6.9 mph - N/A   Clear
10:53 AM 53.1 °F - 24.1 °F 32% 30.32 in 10.0 mi Variable 6.9 mph - N/A   Clear
11:53 AM 57.0 °F - 24.1 °F 28% 30.27 in 10.0 mi South 8.1 mph - N/A   Unknown
12:54 PM 60.1 °F - 26.1 °F 27% 30.24 in - SSE 10.4 mph - N/A   Unknown
1:53 PM 61.0 °F - 35.1 °F 38% 30.21 in 10.0 mi SSE 6.9 mph - N/A   Clear
2:53 PM 63.0 °F - 39.0 °F 41% 30.19 in 10.0 mi SSE 9.2 mph - N/A   Clear
3:53 PM 61.0 °F - 39.9 °F 46% 30.18 in 10.0 mi South 9.2 mph - N/A   Clear
4:53 PM 57.9 °F - 42.1 °F 56% 30.18 in 10.0 mi SE 3.5 mph - N/A   Clear
5:53 PM 54.0 °F - 42.1 °F 64% 30.18 in 10.0 mi Calm Calm - N/A   Clear
6:53 PM 50.0 °F - 43.0 °F 77% 30.19 in 10.0 mi Calm Calm - N/A   Clear
7:53 PM 48.9 °F - 43.0 °F 80% 30.19 in 10.0 mi Calm Calm - N/A   Clear
8:53 PM 48.9 °F - 45.0 °F 86% 30.20 in 10.0 mi SSE 3.5 mph - N/A   Overcast
10:53 PM 50.0 °F - 46.0 °F 86% 30.17 in 10.0 mi SE 4.6 mph - N/A   Clear
11:53 PM 48.9 °F - 46.0 °F 90% 30.16 in 10.0 mi Calm Calm - N/A   Clear